| time (UTC) | temp F | wind direction | speed MPH | gust MPH | rain 1hr in | rain 24hr in | rain mn in | humidity % | barometer mb |
| 20260904001011 | 93 | 90 | 11.0 | 22.0 | 0.00 | 0.00 | 0.00 | 49 | 1007.0 |
| 20260904000510 | 94 | 76 | 11.0 | 22.0 | 0.00 | 0.00 | 0.00 | 47 | 1006.7 |
| 20260904000011 | 94 | 76 | 12.0 | 22.0 | 0.00 | 0.00 | 0.00 | 46 | 1006.7 |
| 20260903235509 | 95 | 62 | 8.0 | 14.0 | 0.00 | 0.00 | 0.00 | 46 | 1006.5 |
| 20260903235010 | 95 | 79 | 3.0 | 16.0 | 0.00 | 0.00 | 0.00 | 47 | 1006.5 |
| 20260903234511 | 95 | 28 | 9.0 | 16.0 | 0.00 | 0.00 | 0.00 | 46 | 1006.5 |
| 20260903234009 | 95 | 67 | 6.0 | 15.0 | 0.00 | 0.00 | 0.00 | 46 | 1006.6 |
| 20260903233612 | 95 | 53 | 6.0 | 14.0 | 0.00 | 0.00 | 0.00 | 46 | 1006.5 |
| 20260903233008 | 95 | 82 | 8.0 | 15.0 | 0.00 | 0.00 | 0.00 | 46 | 1006.4 |
| 20260903232509 | 96 | 44 | 7.0 | 17.0 | 0.00 | 0.00 | 0.00 | 45 | 1006.4 |
| 20260903232008 | 96 | 58 | 9.0 | 17.0 | 0.00 | 0.00 | 0.00 | 44 | 1006.3 |
| 20260903231522 | 97 | 360 | 7.0 | 16.0 | 0.00 | 0.00 | 0.00 | 42 | 1006.3 |
| 20260903231008 | 98 | 84 | 5.0 | 10.0 | 0.00 | 0.00 | 0.00 | 41 | 1006.3 |
| 20260903230511 | 98 | 19 | 5.0 | 12.0 | 0.00 | 0.00 | 0.00 | 40 | 1006.2 |
| 20260903230007 | 98 | 89 | 6.0 | 15.0 | 0.00 | 0.00 | 0.00 | 41 | 1006.2 |
| 20260903225507 | 98 | 335 | 8.0 | 15.0 | 0.00 | 0.00 | 0.00 | 41 | 1006.1 |
| 20260903225007 | 99 | 44 | 8.0 | 14.0 | 0.00 | 0.00 | 0.00 | 40 | 1006.1 |
| 20260903224523 | 100 | 11 | 4.0 | 11.0 | 0.00 | 0.00 | 0.00 | 39 | 1006.1 |
| 20260903224006 | 100 | 71 | 4.0 | 13.0 | 0.00 | 0.00 | 0.00 | 39 | 1006.1 |
| 20260903223506 | 101 | 87 | 2.0 | 11.0 | 0.00 | 0.00 | 0.00 | 37 | 1006.1 |
| 20260903223009 | 101 | 223 | 3.0 | 8.0 | 0.00 | 0.00 | 0.00 | 37 | 1006.1 |
| 20260903222504 | 100 | 112 | 3.0 | 9.0 | 0.00 | 0.00 | 0.00 | 38 | 1006.1 |
| 20260903222004 | 100 | 36 | 3.0 | 9.0 | 0.00 | 0.00 | 0.00 | 37 | 1006.1 |
| 20260903221506 | 100 | 61 | 4.0 | 9.0 | 0.00 | 0.00 | 0.00 | 37 | 1006.1 |
| 20260903221005 | 101 | 123 | 2.0 | 12.0 | 0.00 | 0.00 | 0.00 | 37 | 1006.2 |
| 20260903220503 | 101 | 26 | 3.0 | 12.0 | 0.00 | 0.00 | 0.00 | 37 | 1006.2 |
| 20260903220003 | 101 | 118 | 3.0 | 7.0 | 0.00 | 0.00 | 0.00 | 37 | 1006.2 |
| 20260903215503 | 101 | 38 | 1.0 | 9.0 | 0.00 | 0.00 | 0.00 | 37 | 1006.3 |
| 20260903215002 | 102 | 106 | 4.0 | 9.0 | 0.00 | 0.00 | 0.00 | 36 | 1006.3 |
| 20260903214501 | 102 | 132 | 0.0 | 6.0 | 0.00 | 0.00 | 0.00 | 36 | 1006.3 |
| 20260903214001 | 102 | 146 | 3.0 | 11.0 | 0.00 | 0.00 | 0.00 | 35 | 1006.4 |
| 20260903213501 | 102 | 57 | 4.0 | 11.0 | 0.00 | 0.00 | 0.00 | 36 | 1006.4 |
| 20260903213111 | 103 | 90 | 2.0 | 8.0 | 0.00 | 0.00 | 0.00 | 35 | 1006.5 |
| 20260903212601 | 102 | 147 | 2.0 | 8.0 | 0.00 | 0.00 | 0.00 | 36 | 1006.5 |
| 20260903212059 | 102 | 317 | 2.0 | 6.0 | 0.00 | 0.00 | 0.00 | 37 | 1006.4 |
| 20260903211606 | 101 | 18 | 1.0 | 9.0 | 0.00 | 0.00 | 0.00 | 38 | 1006.6 |
| 20260903211057 | 101 | 90 | 4.0 | 10.0 | 0.00 | 0.00 | 0.00 | 37 | 1006.7 |
| 20260903210556 | 102 | 90 | 2.0 | 10.0 | 0.00 | 0.00 | 0.00 | 36 | 1006.8 |
| 20260903210125 | 102 | 86 | 3.0 | 11.0 | 0.00 | 0.00 | 0.00 | 37 | 1006.9 |
| 20260903205556 | 102 | 70 | 3.0 | 11.0 | 0.00 | 0.00 | 0.00 | 38 | 1006.8 |
| 20260903205054 | 102 | 163 | 2.0 | 10.0 | 0.00 | 0.00 | 0.00 | 38 | 1007.0 |
| 20260903204558 | 101 | 184 | 0.0 | 8.0 | 0.00 | 0.00 | 0.00 | 39 | 1007.0 |
| 20260903204058 | 101 | 126 | 4.0 | 7.0 | 0.00 | 0.00 | 0.00 | 38 | 1007.1 |
| 20260903203552 | 102 | 175 | 1.0 | 7.0 | 0.00 | 0.00 | 0.00 | 39 | 1007.2 |
| 20260903203108 | 102 | 98 | 2.0 | 7.0 | 0.00 | 0.00 | 0.00 | 38 | 1007.3 |
| 20260903202554 | 102 | 153 | 3.0 | 8.0 | 0.00 | 0.00 | 0.00 | 39 | 1007.3 |
| 20260903202049 | 102 | 121 | 2.0 | 8.0 | 0.00 | 0.00 | 0.00 | 39 | 1007.3 |
| 20260903201549 | 101 | 150 | 3.0 | 9.0 | 0.00 | 0.00 | 0.00 | 40 | 1007.5 |
| 20260903201046 | 101 | 210 | 4.0 | 9.0 | 0.00 | 0.00 | 0.00 | 40 | 1007.5 |
| 20260903200545 | 100 | 230 | 2.0 | 8.0 | 0.00 | 0.00 | 0.00 | 40 | 1007.5 |
| 20260903200052 | 100 | 148 | 3.0 | 11.0 | 0.00 | 0.00 | 0.00 | 41 | 1007.6 |
| 20260903195548 | 99 | 128 | 3.0 | 11.0 | 0.00 | 0.00 | 0.00 | 41 | 1007.6 |
| 20260903195043 | 99 | 109 | 2.0 | 9.0 | 0.00 | 0.00 | 0.00 | 42 | 1007.7 |
| 20260903194543 | 98 | 318 | 2.0 | 7.0 | 0.00 | 0.00 | 0.00 | 42 | 1007.7 |
| 20260903194042 | 99 | 134 | 2.0 | 7.0 | 0.00 | 0.00 | 0.00 | 42 | 1007.8 |
| 20260903193542 | 99 | 157 | 2.0 | 8.0 | 0.00 | 0.00 | 0.00 | 41 | 1007.9 |
| 20260903193041 | 100 | 148 | 2.0 | 8.0 | 0.00 | 0.00 | 0.00 | 41 | 1008.0 |
| 20260903192541 | 99 | 110 | 3.0 | 9.0 | 0.00 | 0.00 | 0.00 | 41 | 1008.0 |
| 20260903192041 | 99 | 107 | 1.0 | 8.0 | 0.00 | 0.00 | 0.00 | 42 | 1008.1 |
| 20260903191541 | 99 | 163 | 2.0 | 9.0 | 0.00 | 0.00 | 0.00 | 42 | 1008.2 |
| 20260903191038 | 98 | 92 | 2.0 | 11.0 | 0.00 | 0.00 | 0.00 | 43 | 1008.2 |
| 20260903190536 | 99 | 360 | 3.0 | 11.0 | 0.00 | 0.00 | 0.00 | 44 | 1008.4 |
| 20260903190036 | 99 | 194 | 3.0 | 8.0 | 0.00 | 0.00 | 0.00 | 44 | 1008.5 |
| 20260903185536 | 98 | 202 | 3.0 | 8.0 | 0.00 | 0.00 | 0.00 | 44 | 1008.6 |
| 20260903185034 | 98 | 165 | 1.0 | 7.0 | 0.00 | 0.00 | 0.00 | 45 | 1008.7 |
| 20260903184532 | 97 | 149 | 2.0 | 7.0 | 0.00 | 0.00 | 0.00 | 47 | 1008.7 |
| 20260903184033 | 96 | 146 | 1.0 | 10.0 | 0.00 | 0.00 | 0.00 | 48 | 1008.9 |
| 20260903183532 | 96 | 149 | 6.0 | 10.0 | 0.00 | 0.00 | 0.00 | 47 | 1009.0 |
| 20260903183031 | 97 | 189 | 3.0 | 10.0 | 0.00 | 0.00 | 0.00 | 46 | 1009.1 |
| 20260903182529 | 97 | 138 | 5.0 | 10.0 | 0.00 | 0.00 | 0.00 | 46 | 1009.1 |
| 20260903182029 | 96 | 214 | 2.0 | 8.0 | 0.00 | 0.00 | 0.00 | 48 | 1009.2 |
| 20260903181528 | 96 | 45 | 3.0 | 12.0 | 0.00 | 0.00 | 0.00 | 49 | 1009.3 |
| 20260903181026 | 96 | 141 | 5.0 | 12.0 | 0.00 | 0.00 | 0.00 | 48 | 1009.4 |
| 20260903180525 | 95 | 137 | 5.0 | 10.0 | 0.00 | 0.00 | 0.00 | 48 | 1009.5 |
| 20260903180027 | 95 | 121 | 3.0 | 13.0 | 0.00 | 0.00 | 0.00 | 50 | 1009.5 |
| 20260903175523 | 95 | 236 | 5.0 | 13.0 | 0.00 | 0.00 | 0.00 | 50 | 1009.6 |
| 20260903175023 | 95 | 76 | 2.0 | 10.0 | 0.00 | 0.00 | 0.00 | 52 | 1009.5 |
| 20260903174522 | 94 | 170 | 4.0 | 10.0 | 0.00 | 0.00 | 0.00 | 52 | 1009.8 |
| 20260903174019 | 93 | 154 | 3.0 | 8.0 | 0.00 | 0.00 | 0.00 | 53 | 1009.8 |
| 20260903173519 | 94 | 159 | 4.0 | 9.0 | 0.00 | 0.00 | 0.00 | 53 | 1009.9 |
| 20260903173018 | 94 | 132 | 3.0 | 9.0 | 0.00 | 0.00 | 0.00 | 52 | 1010.0 |
| 20260903172516 | 94 | 157 | 2.0 | 7.0 | 0.00 | 0.00 | 0.00 | 54 | 1010.1 |
| 20260903172015 | 93 | 147 | 2.0 | 12.0 | 0.00 | 0.00 | 0.00 | 55 | 1010.2 |
| 20260903171514 | 92 | 198 | 6.0 | 12.0 | 0.00 | 0.00 | 0.00 | 55 | 1010.3 |
| 20260903171013 | 92 | 176 | 2.0 | 12.0 | 0.00 | 0.00 | 0.00 | 55 | 1010.4 |
| 20260903170512 | 92 | 145 | 7.0 | 12.0 | 0.00 | 0.00 | 0.00 | 55 | 1010.5 |
| 20260903170011 | 92 | 85 | 4.0 | 9.0 | 0.00 | 0.00 | 0.00 | 57 | 1010.5 |
| 20260903165510 | 92 | 148 | 4.0 | 10.0 | 0.00 | 0.00 | 0.00 | 57 | 1010.5 |
| 20260903165008 | 92 | 243 | 4.0 | 11.0 | 0.00 | 0.00 | 0.00 | 57 | 1010.5 |
| 20260903164507 | 91 | 122 | 2.0 | 12.0 | 0.00 | 0.00 | 0.00 | 58 | 1010.6 |
| 20260903164009 | 91 | 184 | 6.0 | 10.0 | 0.00 | 0.00 | 0.00 | 59 | 1010.6 |
| 20260903163505 | 91 | 109 | 4.0 | 11.0 | 0.00 | 0.00 | 0.00 | 59 | 1010.6 |
| 20260903163004 | 90 | 171 | 6.0 | 11.0 | 0.00 | 0.00 | 0.00 | 59 | 1010.6 |
| 20260903162504 | 90 | 219 | 3.0 | 15.0 | 0.00 | 0.00 | 0.00 | 61 | 1010.7 |
| 20260903162002 | 89 | 217 | 5.0 | 15.0 | 0.00 | 0.00 | 0.00 | 61 | 1010.8 |
| 20260903161501 | 89 | 153 | 7.0 | 11.0 | 0.00 | 0.00 | 0.00 | 61 | 1010.8 |
| 20260903161059 | 89 | 125 | 4.0 | 11.0 | 0.00 | 0.00 | 0.00 | 62 | 1010.8 |
| 20260903160558 | 89 | 223 | 3.0 | 9.0 | 0.00 | 0.00 | 0.00 | 64 | 1010.7 |
| 20260903160126 | 88 | 211 | 3.0 | 11.0 | 0.00 | 0.00 | 0.00 | 64 | 1010.7 |
| 20260903155557 | 88 | 156 | 4.0 | 11.0 | 0.00 | 0.00 | 0.00 | 65 | 1010.7 |
| 20260903155056 | 88 | 216 | 4.0 | 11.0 | 0.00 | 0.00 | 0.00 | 65 | 1010.8 |
| 20260903154607 | 88 | 196 | 5.0 | 11.0 | 0.00 | 0.00 | 0.00 | 64 | 1010.8 |
| 20260903154055 | 87 | 132 | 3.0 | 10.0 | 0.00 | 0.00 | 0.00 | 66 | 1010.7 |
| 20260903153551 | 87 | 173 | 4.0 | 10.0 | 0.00 | 0.00 | 0.00 | 67 | 1010.7 |
| 20260903153051 | 87 | 212 | 3.0 | 10.0 | 0.00 | 0.00 | 0.00 | 67 | 1010.7 |
| 20260903152549 | 86 | 196 | 4.0 | 11.0 | 0.00 | 0.00 | 0.00 | 68 | 1010.6 |
| 20260903152048 | 85 | 227 | 4.0 | 12.0 | 0.00 | 0.00 | 0.00 | 69 | 1010.7 |
| 20260903151546 | 86 | 165 | 6.0 | 12.0 | 0.00 | 0.00 | 0.00 | 68 | 1010.8 |
| 20260903151046 | 86 | 123 | 4.0 | 9.0 | 0.00 | 0.00 | 0.00 | 70 | 1010.8 |
| 20260903150545 | 85 | 239 | 3.0 | 10.0 | 0.00 | 0.00 | 0.00 | 71 | 1010.7 |
| 20260903150044 | 85 | 215 | 6.0 | 14.0 | 0.00 | 0.00 | 0.00 | 71 | 1010.7 |
| 20260903145546 | 85 | 173 | 5.0 | 13.0 | 0.00 | 0.00 | 0.00 | 71 | 1010.7 |
| 20260903145042 | 84 | 136 | 6.0 | 13.0 | 0.00 | 0.00 | 0.00 | 71 | 1010.8 |
| 20260903144542 | 84 | 121 | 4.0 | 13.0 | 0.00 | 0.00 | 0.00 | 71 | 1010.8 |
| 20260903144042 | 84 | 114 | 3.0 | 9.0 | 0.00 | 0.00 | 0.00 | 72 | 1010.9 |
| 20260903143540 | 84 | 235 | 3.0 | 8.0 | 0.00 | 0.00 | 0.00 | 73 | 1010.8 |
| 20260903143052 | 83 | 209 | 3.0 | 8.0 | 0.00 | 0.00 | 0.00 | 74 | 1010.8 |
| 20260903142539 | 83 | 225 | 2.0 | 9.0 | 0.00 | 0.00 | 0.00 | 75 | 1010.8 |
| 20260903142037 | 83 | 213 | 3.0 | 7.0 | 0.00 | 0.00 | 0.00 | 75 | 1010.8 |
| 20260903141554 | 83 | 113 | 3.0 | 8.0 | 0.00 | 0.00 | 0.00 | 75 | 1010.9 |
| 20260903141038 | 82 | 243 | 4.0 | 10.0 | 0.00 | 0.00 | 0.00 | 75 | 1010.9 |
| 20260903140537 | 82 | 188 | 3.0 | 11.0 | 0.00 | 0.00 | 0.00 | 76 | 1010.9 |
| 20260903140039 | 82 | 221 | 5.0 | 11.0 | 0.00 | 0.00 | 0.00 | 77 | 1010.9 |
| 20260903135535 | 81 | 142 | 5.0 | 13.0 | 0.00 | 0.00 | 0.00 | 77 | 1010.9 |
| 20260903135035 | 81 | 244 | 5.0 | 13.0 | 0.00 | 0.00 | 0.00 | 77 | 1010.9 |
| 20260903134537 | 81 | 132 | 5.0 | 10.0 | 0.00 | 0.00 | 0.00 | 77 | 1010.9 |
| 20260903134134 | 81 | 212 | 4.0 | 9.0 | 0.00 | 0.00 | 0.00 | 78 | 1010.9 |
| 20260903133534 | 81 | 207 | 2.0 | 7.0 | 0.00 | 0.00 | 0.00 | 78 | 1011.0 |
| 20260903133035 | 81 | 232 | 4.0 | 7.0 | 0.00 | 0.00 | 0.00 | 78 | 1011.1 |
| 20260903132533 | 81 | 149 | 1.0 | 8.0 | 0.00 | 0.00 | 0.00 | 78 | 1011.1 |
| 20260903132030 | 81 | 200 | 3.0 | 10.0 | 0.00 | 0.00 | 0.00 | 78 | 1011.1 |
| 20260903131538 | 81 | 151 | 5.0 | 11.0 | 0.00 | 0.00 | 0.00 | 78 | 1011.0 |
| 20260903131030 | 81 | 229 | 5.0 | 11.0 | 0.00 | 0.00 | 0.00 | 78 | 1011.0 |
| 20260903130533 | 81 | 152 | 3.0 | 7.0 | 0.00 | 0.00 | 0.00 | 78 | 1011.0 |
| 20260903130035 | 81 | 142 | 3.0 | 7.0 | 0.00 | 0.00 | 0.00 | 78 | 1010.9 |
| 20260903125528 | 80 | 184 | 4.0 | 9.0 | 0.00 | 0.00 | 0.00 | 78 | 1010.9 |
| 20260903125028 | 80 | 92 | 1.0 | 8.0 | 0.00 | 0.00 | 0.00 | 78 | 1010.9 |
| 20260903124526 | 80 | 160 | 2.0 | 8.0 | 0.00 | 0.00 | 0.00 | 78 | 1010.8 |
| 20260903124025 | 80 | 162 | 2.0 | 7.0 | 0.00 | 0.00 | 0.00 | 78 | 1010.8 |
| 20260903123526 | 80 | 163 | 2.0 | 7.0 | 0.00 | 0.00 | 0.00 | 78 | 1010.7 |
| 20260903123032 | 80 | 172 | 2.0 | 9.0 | 0.00 | 0.00 | 0.00 | 78 | 1010.7 |
| 20260903122524 | 80 | 136 | 4.0 | 9.0 | 0.00 | 0.00 | 0.00 | 78 | 1010.7 |
| 20260903122022 | 80 | 190 | 3.0 | 8.0 | 0.00 | 0.00 | 0.00 | 78 | 1010.6 |
| 20260903121522 | 81 | 146 | 3.0 | 9.0 | 0.00 | 0.00 | 0.00 | 78 | 1010.5 |
| 20260903121022 | 80 | 160 | 4.0 | 9.0 | 0.00 | 0.00 | 0.00 | 78 | 1010.5 |
| 20260903120522 | 81 | 134 | 4.0 | 10.0 | 0.00 | 0.00 | 0.00 | 78 | 1010.5 |
| 20260903120022 | 81 | 207 | 4.0 | 9.0 | 0.00 | 0.00 | 0.00 | 78 | 1010.5 |
| 20260903115523 | 81 | 156 | 3.0 | 9.0 | 0.00 | 0.00 | 0.00 | 78 | 1010.4 |
| 20260903115021 | 81 | 144 | 4.0 | 12.0 | 0.00 | 0.00 | 0.00 | 78 | 1010.4 |
| 20260903114521 | 81 | 144 | 4.0 | 12.0 | 0.00 | 0.00 | 0.00 | 78 | 1010.3 |
| 20260903114020 | 81 | 213 | 5.0 | 11.0 | 0.00 | 0.00 | 0.00 | 78 | 1010.3 |
| 20260903113520 | 81 | 196 | 2.0 | 10.0 | 0.00 | 0.00 | 0.00 | 78 | 1010.3 |
| 20260903113027 | 81 | 213 | 2.0 | 10.0 | 0.00 | 0.00 | 0.00 | 78 | 1010.3 |
| 20260903112520 | 81 | 186 | 3.0 | 8.0 | 0.00 | 0.00 | 0.00 | 78 | 1010.3 |
| 20260903112023 | 81 | 137 | 2.0 | 9.0 | 0.00 | 0.00 | 0.00 | 78 | 1010.3 |
| 20260903111528 | 81 | 223 | 3.0 | 9.0 | 0.00 | 0.00 | 0.00 | 78 | 1010.3 |
| 20260903111019 | 81 | 171 | 3.0 | 8.0 | 0.00 | 0.00 | 0.00 | 78 | 1010.2 |
| 20260903110519 | 81 | 165 | 2.0 | 9.0 | 0.00 | 0.00 | 0.00 | 78 | 1010.2 |
| 20260903110018 | 81 | 148 | 3.0 | 9.0 | 0.00 | 0.00 | 0.00 | 78 | 1010.2 |
| 20260903105520 | 81 | 117 | 4.0 | 10.0 | 0.00 | 0.00 | 0.00 | 78 | 1010.2 |
| 20260903105022 | 81 | 130 | 3.0 | 10.0 | 0.00 | 0.00 | 0.00 | 78 | 1010.2 |
| 20260903104518 | 81 | 153 | 1.0 | 5.0 | 0.00 | 0.00 | 0.00 | 78 | 1010.3 |
| 20260903104018 | 81 | 193 | 3.0 | 10.0 | 0.00 | 0.00 | 0.00 | 78 | 1010.3 |
| 20260903103518 | 81 | 161 | 2.0 | 10.0 | 0.00 | 0.00 | 0.00 | 78 | 1010.3 |
| 20260903103018 | 81 | 192 | 4.0 | 10.0 | 0.00 | 0.00 | 0.00 | 78 | 1010.2 |
| 20260903102518 | 81 | 153 | 3.0 | 9.0 | 0.00 | 0.00 | 0.00 | 78 | 1010.3 |
| 20260903102019 | 81 | 172 | 2.0 | 11.0 | 0.00 | 0.00 | 0.00 | 78 | 1010.3 |
| 20260903101533 | 81 | 150 | 3.0 | 11.0 | 0.00 | 0.00 | 0.00 | 78 | 1010.2 |
| 20260903101017 | 81 | 175 | 3.0 | 9.0 | 0.00 | 0.00 | 0.00 | 78 | 1010.3 |
| 20260903100517 | 81 | 161 | 2.0 | 10.0 | 0.00 | 0.00 | 0.00 | 78 | 1010.2 |
| 20260903100017 | 81 | 190 | 4.0 | 10.0 | 0.00 | 0.00 | 0.00 | 78 | 1010.2 |
| 20260903095516 | 81 | 159 | 3.0 | 7.0 | 0.00 | 0.00 | 0.00 | 79 | 1010.3 |
| 20260903095017 | 81 | 135 | 3.0 | 7.0 | 0.00 | 0.00 | 0.00 | 79 | 1010.3 |
| 20260903094516 | 81 | 207 | 2.0 | 8.0 | 0.00 | 0.00 | 0.00 | 79 | 1010.4 |
| 20260903094017 | 81 | 161 | 4.0 | 8.0 | 0.00 | 0.00 | 0.00 | 79 | 1010.3 |
| 20260903093516 | 81 | 180 | 3.0 | 9.0 | 0.00 | 0.00 | 0.00 | 79 | 1010.2 |
| 20260903093016 | 81 | 195 | 2.0 | 6.0 | 0.00 | 0.00 | 0.00 | 79 | 1010.2 |
| 20260903092519 | 81 | 187 | 2.0 | 8.0 | 0.00 | 0.00 | 0.00 | 79 | 1010.2 |
| 20260903092015 | 81 | 144 | 3.0 | 7.0 | 0.00 | 0.00 | 0.00 | 79 | 1010.2 |
| 20260903091516 | 81 | 118 | 2.0 | 6.0 | 0.00 | 0.00 | 0.00 | 79 | 1010.2 |
| 20260903091014 | 81 | 161 | 2.0 | 5.0 | 0.00 | 0.00 | 0.00 | 79 | 1010.3 |
| 20260903090515 | 81 | 162 | 0.0 | 6.0 | 0.00 | 0.00 | 0.00 | 79 | 1010.3 |
| 20260903090015 | 81 | 159 | 2.0 | 5.0 | 0.00 | 0.00 | 0.00 | 79 | 1010.3 |
| 20260903085514 | 81 | 192 | 2.0 | 8.0 | 0.00 | 0.00 | 0.00 | 79 | 1010.3 |
| 20260903085014 | 81 | 132 | 2.0 | 8.0 | 0.00 | 0.00 | 0.00 | 79 | 1010.3 |
| 20260903084513 | 81 | 136 | 1.0 | 8.0 | 0.00 | 0.00 | 0.00 | 79 | 1010.3 |
| 20260903084013 | 81 | 138 | 2.0 | 8.0 | 0.00 | 0.00 | 0.00 | 79 | 1010.2 |
| 20260903083514 | 81 | 160 | 3.0 | 9.0 | 0.00 | 0.00 | 0.00 | 79 | 1010.2 |
| 20260903083022 | 81 | 146 | 4.0 | 9.0 | 0.00 | 0.00 | 0.00 | 79 | 1010.1 |
| 20260903082513 | 81 | 173 | 3.0 | 9.0 | 0.00 | 0.00 | 0.00 | 79 | 1010.1 |
| 20260903082012 | 81 | 120 | 3.0 | 10.0 | 0.00 | 0.00 | 0.00 | 79 | 1010.2 |
| 20260903081524 | 81 | 177 | 3.0 | 9.0 | 0.00 | 0.00 | 0.00 | 79 | 1010.3 |
| 20260903081011 | 81 | 161 | 3.0 | 6.0 | 0.00 | 0.00 | 0.00 | 78 | 1010.4 |
| 20260903080517 | 81 | 142 | 3.0 | 6.0 | 0.00 | 0.00 | 0.00 | 78 | 1010.4 |
| 20260903080011 | 81 | 134 | 2.0 | 6.0 | 0.00 | 0.00 | 0.00 | 78 | 1010.4 |
| 20260903075515 | 81 | 179 | 2.0 | 6.0 | 0.00 | 0.00 | 0.00 | 78 | 1010.3 |
| 20260903075010 | 81 | 146 | 1.0 | 6.0 | 0.00 | 0.00 | 0.00 | 78 | 1010.3 |
| 20260903074510 | 81 | 135 | 0.0 | 5.0 | 0.00 | 0.00 | 0.00 | 78 | 1010.3 |
| 20260903074013 | 81 | 152 | 1.0 | 6.0 | 0.00 | 0.00 | 0.00 | 78 | 1010.3 |
| 20260903073511 | 81 | 178 | 2.0 | 6.0 | 0.00 | 0.00 | 0.00 | 78 | 1010.3 |
| 20260903073014 | 81 | 159 | 1.0 | 8.0 | 0.00 | 0.00 | 0.00 | 78 | 1010.4 |
| 20260903072509 | 81 | 173 | 1.0 | 8.0 | 0.00 | 0.00 | 0.00 | 77 | 1010.3 |
| 20260903072011 | 81 | 136 | 2.0 | 7.0 | 0.00 | 0.00 | 0.00 | 77 | 1010.3 |
| 20260903071508 | 81 | 175 | 2.0 | 7.0 | 0.00 | 0.00 | 0.00 | 77 | 1010.2 |
| 20260903071007 | 81 | 144 | 2.0 | 8.0 | 0.00 | 0.00 | 0.00 | 77 | 1010.2 |
| 20260903070507 | 81 | 165 | 1.0 | 8.0 | 0.00 | 0.00 | 0.00 | 77 | 1010.1 |
| 20260903070006 | 81 | 140 | 2.0 | 7.0 | 0.00 | 0.00 | 0.00 | 76 | 1010.2 |
| 20260903065506 | 81 | 153 | 2.0 | 7.0 | 0.00 | 0.00 | 0.00 | 76 | 1010.3 |
| 20260903065005 | 81 | 144 | 2.0 | 7.0 | 0.00 | 0.00 | 0.00 | 76 | 1010.3 |
| 20260903064505 | 82 | 114 | 1.0 | 9.0 | 0.00 | 0.00 | 0.00 | 76 | 1010.4 |
| 20260903064004 | 82 | 213 | 2.0 | 9.0 | 0.00 | 0.00 | 0.00 | 76 | 1010.4 |
| 20260903063504 | 82 | 180 | 1.0 | 8.0 | 0.00 | 0.00 | 0.00 | 75 | 1010.5 |
| 20260903063003 | 82 | 217 | 2.0 | 8.0 | 0.00 | 0.00 | 0.00 | 75 | 1010.5 |
| 20260903062502 | 82 | 151 | 2.0 | 8.0 | 0.00 | 0.00 | 0.00 | 75 | 1010.5 |
| 20260903062002 | 82 | 162 | 1.0 | 9.0 | 0.00 | 0.00 | 0.00 | 74 | 1010.5 |
| 20260903061502 | 82 | 124 | 3.0 | 9.0 | 0.00 | 0.00 | 0.00 | 74 | 1010.6 |
| 20260903061002 | 82 | 143 | 1.0 | 8.0 | 0.00 | 0.00 | 0.00 | 74 | 1010.6 |
| 20260903060600 | 82 | 103 | 1.0 | 7.0 | 0.00 | 0.00 | 0.00 | 73 | 1010.6 |
| 20260903060115 | 83 | 159 | 2.0 | 7.0 | 0.00 | 0.00 | 0.00 | 73 | 1010.7 |
| 20260903060002 | 83 | 80 | 2.0 | 7.0 | 0.00 | 0.00 | 0.00 | 73 | 1010.7 |
| 20260903055559 | 83 | 173 | 1.0 | 8.0 | 0.00 | 0.00 | 0.00 | 72 | 1010.7 |
| 20260903055058 | 83 | 106 | 2.0 | 8.0 | 0.00 | 0.00 | 0.00 | 72 | 1010.7 |
| 20260903054557 | 83 | 140 | 0.0 | 5.0 | 0.00 | 0.00 | 0.00 | 71 | 1010.6 |
| 20260903054057 | 83 | 133 | 1.0 | 5.0 | 0.00 | 0.00 | 0.00 | 71 | 1010.7 |
| 20260903053556 | 83 | 136 | 1.0 | 4.0 | 0.00 | 0.00 | 0.00 | 71 | 1010.6 |
| 20260903053055 | 83 | 61 | 1.0 | 8.0 | 0.00 | 0.00 | 0.00 | 70 | 1010.6 |
| 20260903052555 | 83 | 92 | 2.0 | 8.0 | 0.00 | 0.00 | 0.00 | 70 | 1010.5 |
| 20260903052053 | 84 | 168 | 3.0 | 8.0 | 0.00 | 0.00 | 0.00 | 70 | 1010.4 |
| 20260903051552 | 84 | 180 | 3.0 | 8.0 | 0.00 | 0.00 | 0.00 | 69 | 1010.3 |
| 20260903051051 | 84 | 141 | 2.0 | 9.0 | 0.00 | 0.00 | 0.00 | 68 | 1010.3 |
| 20260903050550 | 84 | 125 | 4.0 | 13.0 | 0.00 | 0.00 | 0.00 | 68 | 1010.2 |
| 20260903050108 | 84 | 139 | 4.0 | 13.0 | 0.00 | 0.00 | 0.00 | 67 | 1010.1 |
| 20260903045549 | 85 | 175 | 2.0 | 14.0 | 0.00 | 0.00 | 0.00 | 67 | 1010.0 |
| 20260903045048 | 85 | 186 | 6.0 | 14.0 | 0.00 | 0.00 | 0.00 | 66 | 1009.9 |
| 20260903044548 | 85 | 158 | 6.0 | 17.0 | 0.00 | 0.00 | 0.00 | 65 | 1009.9 |
| 20260903044048 | 85 | 171 | 8.0 | 17.0 | 0.00 | 0.00 | 0.00 | 65 | 1009.9 |
| 20260903043549 | 85 | 143 | 3.0 | 15.0 | 0.00 | 0.00 | 0.00 | 64 | 1009.9 |
| 20260903043049 | 86 | 143 | 5.0 | 15.0 | 0.00 | 0.00 | 0.00 | 63 | 1009.8 |
| 20260903042548 | 86 | 145 | 6.0 | 14.0 | 0.00 | 0.00 | 0.00 | 63 | 1009.8 |
| 20260903042047 | 86 | 170 | 6.0 | 14.0 | 0.00 | 0.00 | 0.00 | 64 | 1009.9 |
| 20260903041552 | 86 | 124 | 3.0 | 10.0 | 0.00 | 0.00 | 0.00 | 65 | 1009.8 |
| 20260903041047 | 87 | 131 | 3.0 | 10.0 | 0.00 | 0.00 | 0.00 | 64 | 1009.8 |
| 20260903040547 | 87 | 176 | 2.0 | 11.0 | 0.00 | 0.00 | 0.00 | 64 | 1009.7 |
| 20260903040055 | 87 | 188 | 3.0 | 11.0 | 0.00 | 0.00 | 0.00 | 63 | 1009.7 |
| 20260903035546 | 87 | 125 | 2.0 | 10.0 | 0.00 | 0.00 | 0.00 | 63 | 1009.7 |
| 20260903035046 | 88 | 199 | 3.0 | 10.0 | 0.00 | 0.00 | 0.00 | 62 | 1009.8 |
| 20260903034546 | 88 | 115 | 3.0 | 9.0 | 0.00 | 0.00 | 0.00 | 62 | 1009.7 |
| 20260903034049 | 88 | 117 | 1.0 | 9.0 | 0.00 | 0.00 | 0.00 | 61 | 1009.6 |
| 20260903033547 | 89 | 50 | 2.0 | 8.0 | 0.00 | 0.00 | 0.00 | 61 | 1009.6 |
| 20260903033045 | 89 | 151 | 3.0 | 9.0 | 0.00 | 0.00 | 0.00 | 60 | 1009.4 |
| 20260903032545 | 89 | 146 | 3.0 | 9.0 | 0.00 | 0.00 | 0.00 | 60 | 1009.4 |
| 20260903032045 | 90 | 167 | 3.0 | 9.0 | 0.00 | 0.00 | 0.00 | 59 | 1009.3 |
| 20260903031545 | 90 | 143 | 3.0 | 9.0 | 0.00 | 0.00 | 0.00 | 59 | 1009.2 |
| 20260903031046 | 90 | 117 | 4.0 | 9.0 | 0.00 | 0.00 | 0.00 | 59 | 1009.1 |
| 20260903030544 | 90 | 123 | 2.0 | 9.0 | 0.00 | 0.00 | 0.00 | 58 | 1009.0 |
| 20260903030047 | 91 | 117 | 2.0 | 9.0 | 0.00 | 0.00 | 0.00 | 57 | 1008.9 |
| 20260903025546 | 91 | 105 | 1.0 | 6.0 | 0.00 | 0.00 | 0.00 | 55 | 1008.9 |
| 20260903025044 | 91 | 159 | 2.0 | 6.0 | 0.00 | 0.00 | 0.00 | 53 | 1008.8 |
| 20260903024544 | 91 | 98 | 1.0 | 11.0 | 0.00 | 0.00 | 0.00 | 53 | 1008.7 |
| 20260903024043 | 92 | 5 | 3.0 | 11.0 | 0.00 | 0.00 | 0.00 | 53 | 1008.5 |
| 20260903023544 | 92 | 98 | 5.0 | 10.0 | 0.00 | 0.00 | 0.00 | 51 | 1008.4 |
| 20260903023044 | 93 | 148 | 3.0 | 10.0 | 0.00 | 0.00 | 0.00 | 49 | 1008.4 |
| 20260903022544 | 93 | 126 | 3.0 | 10.0 | 0.00 | 0.00 | 0.00 | 46 | 1008.3 |
| 20260903022043 | 93 | 136 | 2.0 | 6.0 | 0.00 | 0.00 | 0.00 | 44 | 1008.2 |
| 20260903021546 | 93 | 155 | 1.0 | 5.0 | 0.00 | 0.00 | 0.00 | 44 | 1008.0 |
| 20260903021043 | 93 | 161 | 0.0 | 2.0 | 0.00 | 0.00 | 0.00 | 43 | 1007.9 |
| 20260903020546 | 93 | 161 | 0.0 | 2.0 | 0.00 | 0.00 | 0.00 | 43 | 1007.9 |
| 20260903020046 | 93 | 161 | 0.0 | 2.0 | 0.00 | 0.00 | 0.00 | 42 | 1007.9 |
| 20260903015542 | 94 | 161 | 0.0 | 2.0 | 0.00 | 0.00 | 0.00 | 42 | 1007.8 |
| 20260903015044 | 94 | 161 | 0.0 | 2.0 | 0.00 | 0.00 | 0.00 | 42 | 1007.7 |
| 20260903014549 | 94 | 163 | 0.0 | 3.0 | 0.00 | 0.00 | 0.00 | 42 | 1007.6 |
| 20260903014042 | 94 | 163 | 1.0 | 3.0 | 0.00 | 0.00 | 0.00 | 42 | 1007.6 |
| 20260903013544 | 94 | 163 | 0.0 | 2.0 | 0.00 | 0.00 | 0.00 | 42 | 1007.6 |
| 20260903013042 | 95 | 163 | 0.0 | 2.0 | 0.00 | 0.00 | 0.00 | 41 | 1007.6 |
| 20260903012541 | 95 | 163 | 1.0 | 3.0 | 0.00 | 0.00 | 0.00 | 41 | 1007.6 |
| 20260903012041 | 95 | 163 | 0.0 | 3.0 | 0.00 | 0.00 | 0.00 | 41 | 1007.5 |
| 20260903011556 | 95 | 163 | 1.0 | 3.0 | 0.00 | 0.00 | 0.00 | 41 | 1007.5 |
| 20260903011041 | 96 | 163 | 2.0 | 4.0 | 0.00 | 0.00 | 0.00 | 40 | 1007.4 |
| 20260903010540 | 96 | 169 | 1.0 | 5.0 | 0.00 | 0.00 | 0.00 | 39 | 1007.3 |
| 20260903010041 | 96 | 161 | 1.0 | 5.0 | 0.00 | 0.00 | 0.00 | 39 | 1007.4 |
| 20260903005641 | 96 | 170 | 2.0 | 5.0 | 0.00 | 0.00 | 0.00 | 38 | 1007.3 |
| 20260903005042 | 97 | 150 | 2.0 | 6.0 | 0.00 | 0.00 | 0.00 | 38 | 1007.3 |
| 20260903004541 | 97 | 157 | 2.0 | 6.0 | 0.00 | 0.00 | 0.00 | 38 | 1007.3 |
| 20260903004040 | 97 | 169 | 3.0 | 6.0 | 0.00 | 0.00 | 0.00 | 37 | 1007.5 |
| 20260903003540 | 98 | 165 | 3.0 | 6.0 | 0.00 | 0.00 | 0.00 | 37 | 1007.4 |
| 20260903003042 | 98 | 179 | 2.0 | 5.0 | 0.00 | 0.00 | 0.00 | 36 | 1007.3 |
| 20260903002541 | 98 | 127 | 0.0 | 8.0 | 0.00 | 0.00 | 0.00 | 37 | 1007.4 |
| 20260903002042 | 98 | 152 | 2.0 | 8.0 | 0.00 | 0.00 | 0.00 | 36 | 1007.3 |
| 20260903001537 | 98 | 178 | 2.0 | 8.0 | 0.00 | 0.00 | 0.00 | 37 | 1007.4 |